Location: Palomar Mountain Lodge
(33.3110°N, 116.8495°W)
Time: 23:46:33
(UTC-08:00)

Cosmos 1455 - Pass Details

Date: 12 July 2018
Orbit: 500 x 524 km, 82.5° (Epoch: 17 December)

Event Time Altitude Azimuth Distance (km) Brightness Sun altitude
Rises 21:19:19 0° 347° (NNW) 2,647 6.7 -14.9°
Reaches altitude 10° 21:21:30 10° 342° (NNW) 1,758 5.8 -15.3°
Maximum altitude 21:25:14 49° 267° (W) 676 3.0 -15.9°
Enters shadow 21:28:39 12° 193° (SSW) 1,633 4.4 -16.4°
